Location: Buckenweiler
(49.0667°N, 10.2500°E)
Time: 21:08:30
(UTC+00:00)

IGS 5A - Pass Details

Date: 18 January 2026
Orbit: 551 x 554 km, 97.4° (Epoch: 8 January)

Event Time Altitude Azimuth Distance (km) Brightness Sun altitude
Rises 05:46:37 0° 7° (N) 2,741 6.8 -12.6°
Reaches altitude 10° 05:48:49 10° 1° (N) 1,842 5.8 -12.3°
Maximum altitude 05:52:36 44° 289° (WNW) 779 3.6 -11.7°
Drops below altitude 10° 05:56:22 10° 218° (SW) 1,828 5.8 -11.1°
Sets 05:58:32 0° 211° (SSW) 2,717 6.7 -10.8°
